Location: Newark
(43.9128°N, 6.9253°E)
Time: 07:05:48
(UTC+00:00)

Envisat - Visible Passes

Search period start: 15 November 2019 00:00
Search period end: 25 November 2019 00:00
Orbit: 764 x 766 km, 98.1° (Epoch: 14 November)

Date Brightness Start Highest point End Pass type
(mag) Time Alt. Az. Time Alt. Az. Time Alt. Az.
15 Nov 6.0 05:11:52 10° NE 05:15:00 16° E 05:18:05 10° SE visible
15 Nov 4.2 18:05:33 10° S 18:10:22 43° W 18:15:12 10° NNW visible
16 Nov 2.9 17:28:27 10° SSE 17:33:30 88° E 17:38:37 10° NNW visible
16 Nov 6.2 19:11:40 10° WSW 19:13:13 11° W 19:14:46 10° WNW visible
17 Nov 5.4 05:36:25 10° NE 05:40:45 27° E 05:45:03 10° SSE visible
17 Nov 3.4 16:52:07 10° SE 16:56:52 41° ENE 17:01:38 10° N visible
17 Nov 5.2 18:31:53 10° SSW 18:36:02 25° W 18:40:13 10° NW visible
18 Nov 6.2 05:01:24 10° ENE 05:03:35 13° E 05:05:44 10° ESE visible
18 Nov 3.7 17:54:05 10° S 17:59:03 54° W 18:04:02 10° NNW visible
19 Nov 4.3 06:01:29 10° NNE 06:06:24 47° E 06:11:17 10° S visible
19 Nov 2.9 17:17:13 10° SSE 17:22:15 71° ENE 17:27:20 10° N visible
19 Nov 5.9 18:59:03 10° WSW 19:01:48 15° W 19:04:34 10° NW visible
20 Nov 5.7 05:25:27 10° NE 05:29:23 22° E 05:33:17 10° SE visible
20 Nov 3.6 16:41:09 10° SE 16:45:40 34° ENE 16:50:12 10° N visible
20 Nov 4.8 18:20:11 10° SSW 18:24:40 31° W 18:29:11 10° NNW visible
21 Nov 3.3 17:42:42 10° S 17:47:45 68° WSW 17:52:49 10° NNW visible
22 Nov 4.8 05:50:21 10° NNE 05:55:04 37° E 05:59:45 10° SSE visible
22 Nov 3.0 17:06:04 10° SSE 17:11:00 56° ENE 17:16:00 10° N visible
22 Nov 5.6 18:46:55 10° SW 18:50:24 18° W 18:53:54 10° NW visible
23 Nov 6.0 05:14:36 10° NE 05:17:59 18° E 05:21:21 10° SE visible
23 Nov 3.9 16:30:15 10° ESE 16:34:29 27° ENE 16:38:44 10° N visible
23 Nov 4.4 18:08:36 10° SSW 18:13:20 39° W 18:18:06 10° NNW visible
24 Nov 3.0 17:31:23 10° SSE 17:36:28 85° WSW 17:41:35 10° NNW visible
24 Nov 6.3 19:15:47 10° W 19:16:13 10° W 19:16:40 10° W visible
